AirNav   Air Wisconsin pilot careers
 
 357 users online  

KCC Coffman Cove Seaplane Base
Coffman Cove, Alaska, USA


FAA INFORMATION EFFECTIVE 06 DECEMBER 2018

Location

FAA Identifier: KCC
Lat/Long: 56-00-53.2940N / 132-50-02.1210W
56-00.888233N / 132-50.035350W
56.0148039 / -132.8339225
(estimated)
Elevation: 0 ft. / 0 m (estimated)
Variation: 26E (1985)
Time zone: UTC -9 (UTC -8 during Daylight Saving Time)
Zip code: 99918

Seaplane Base Operations

Seaplane Base use: Open to the public
Activation date: 01/1966
Control tower: no
ARTCC: ANCHORAGE CENTER
FSS: KETCHIKAN FLIGHT SERVICE STATION [907-225-9481]
Alternate FSS: JNU JUNEAU FLIGHT SERVICE STATION [1-866-297-2236]
NOTAMs facility: KTN (NOTAM-D service available)
Attendance: UNATNDD
Wind indicator: yes
Segmented circle: no

Seaplane Base Communications

CTAF: 122.9

Nearby radio navigation aids

VOR radial/distance  VOR name  Freq  Var
LVDr143/28.4LEVEL ISLAND VOR/DME116.5020E

 
NDB name  Hdg/Dist  Freq  Var  ID
KLAWOCK357/28.022920EAKW .- -.- .--
SUMNER STRAIT142/28.452920ESQM ... --.- --

Seaplane Base Services

Parking: tiedowns
Airframe service: NONE
Powerplant service: NONE
Bottled oxygen: NONE
Bulk oxygen: NONE

Runway Information

Runway N/S

Dimensions: 5000 x 2000 ft. / 1524 x 610 m
NARROW CHANNEL AT LOW TIDE.
Surface: water
RUNWAY N  RUNWAY S
Elevation: 0.0 ft.0.0 ft.
Traffic pattern: leftleft

Seaplane Base Ownership and Management from official FAA records

Ownership: Publicly-owned
Owner: ALASKA DOT&PF SOUTHCOAST REGION
PO BOX 112506
JUNEAU, AK 99811-2506
Phone 907-465-1786
Manager: TIM LACOUR
P.O. BOX 549
KLAWOCK, AK 99925-0549
Phone 907-755-2229

Seaplane Base Operational Statistics

Aircraft operations: avg 40/month *
84% air taxi
16% transient general aviation
* for 12-month period ending 31 December 2017

Additional Remarks

SPB FLOAT/RAMP BTN ALASKA MARINE FERRY TERMINAL AND BOAT HARBOR.
WX CAMERA AVBL ON INTERNET AT HTTP://AVCAMS.FAA.GOV

Instrument Procedures

There are no published instrument procedures at KCC.

Some nearby airports with instrument procedures:

PAKW - Klawock Airport (27 nm S)
PAWG - Wrangell Airport (32 nm NE)
PAPG - Petersburg James A Johnson Airport (47 nm N)
PAKT - Ketchikan International Airport (55 nm SE)
PAFE - Kake Airport (67 nm NW)
 
Loc | Ops | Rwys | IFR | FBO | Links
Com | Nav | Svcs | Stats | Notes

Crowley
 
Area around KCC (Coffman Cove Seaplane Base)
 
Road maps at: MapQuest Bing Google
 
Aerial photo
No photo
 
Sectional chart

 
Airport distance calculator
Flying to Coffman Cove Seaplane Base? Find the distance to fly.

From to KCC

Sunrise and sunset
Times for 14-Dec-2018
 Local
(UTC-9)
 Zulu
(UTC)
Morning civil twilight07:3016:30
Sunrise08:1717:17
Sunset15:1500:15
Evening civil twilight16:0201:02

Current date and time
Zulu (UTC)  15-Dec-2018 08:17:16
Local (UTC-9)  14-Dec-2018 23:17:16
 
METAR
PAKW 
27nm S 
150653Z AUTO 00000KT 10SM CLR M02/M04 A2948 RMK AO2 SLP984 I1000 T10171044 TSNO
PAWG 
32nm NE 
150756Z AUTO 14004KT 10SM CLR M03/M05 A2954 RMK AO2 SLP005 T10331050 FZRANO TSNO PNO $
PAPG 
48nm N 
150756Z AUTO 00000KT 10SM CLR M06/M07 A2954 RMK AO2 SLP006 T10561067 FZRANO
PAHY 
49nm S 
150756Z AUTO 00000KT 9SM CLR M03/M04 A2951 RMK AO2 SLP093 T10281039 400281033 FZRANO $
TAF
PAKW 
27nm S 
150535Z 1506/1606 VRB04KT P6SM SKC FM151000 05012KT P6SM SCT080 BKN120 OVC200 FM151600 05030G50KT P6SM -RA OVC035 WS020/14065KT FM152100 05030G50KT 4SM -RA BR FEW006 SCT010 OVC025 WS020/14070KT AMD LTD TO CLD VIS AND WIND
PAWG 
32nm NE 
150535Z 1506/1606 31006KT P6SM SKC FM151500 10010G20KT P6SM BKN200 FM152100 10012G22KT P6SM SCT040 OVC080 WS020/12035KT FM160000 10020G30KT 6SM -RA BR SCT020 BKN040 OVC060 WS020/12045KT AMD LTD TO CLD VIS AND WIND 1506/1515
NOTAMs
Click for the latest NOTAMs
NOTAMs are issued by the DoD/FAA and will open in a separate window not controlled by AirNav.

 

 
 

Would you like to see your business listed on this page?

 If your business provides an interesting product or service to pilots, flight crews, aircraft, or users of the Coffman Cove Seaplane Base, you should consider listing it here.  To start the listing process, click on the button below
 
Add a business
 

Other Pages about Coffman Cove Seaplane Base

Update a link
 
Copyright © AirNav, LLC. All rights reserved. Privacy Policy  Contact